| time (UTC) | temp F | wind direction | speed MPH | gust MPH | rain 1hr in | rain 24hr in | rain mn in | humidity % | barometer mb |
| 20260831044538 | 71 | 216 | 7.0 | 10.0 | 0.00 | 1.11 | 0.00 | 93 | 1014.0 |
| 20260831044031 | 71 | 216 | 8.0 | 10.0 | 0.00 | 1.11 | 0.00 | 93 | 1014.0 |
| 20260831043540 | 71 | 212 | 8.0 | 10.0 | 0.00 | 1.11 | 0.00 | 93 | 1014.0 |
| 20260831043029 | 71 | 216 | 8.0 | 10.0 | 0.00 | 1.11 | 0.00 | 93 | 1013.9 |
| 20260831042536 | 71 | 202 | 7.0 | 11.0 | 0.00 | 1.11 | 0.00 | 93 | 1013.9 |
| 20260831042030 | 71 | 204 | 8.0 | 12.0 | 0.00 | 1.11 | 0.00 | 93 | 1013.9 |
| 20260831041539 | 71 | 206 | 9.0 | 12.0 | 0.00 | 1.11 | 0.00 | 93 | 1013.9 |
| 20260831041027 | 71 | 204 | 9.0 | 12.0 | 0.00 | 1.11 | 0.00 | 93 | 1013.9 |
| 20260831040537 | 71 | 208 | 9.0 | 13.0 | 0.00 | 1.11 | 0.00 | 93 | 1013.9 |
| 20260831040046 | 71 | 200 | 10.0 | 14.0 | 0.00 | 1.11 | 0.00 | 93 | 1013.9 |
| 20260831035521 | 71 | 200 | 10.0 | 16.0 | 0.00 | 1.11 | 1.11 | 93 | 1013.8 |
| 20260831035051 | 71 | 203 | 11.0 | 16.0 | 0.00 | 1.11 | 1.11 | 93 | 1013.7 |
| 20260831034540 | 71 | 179 | 10.0 | 14.0 | 0.00 | 1.11 | 1.11 | 93 | 1013.6 |
| 20260831034114 | 71 | 192 | 11.0 | 15.0 | 0.00 | 1.11 | 1.11 | 93 | 1013.7 |
| 20260831033528 | 71 | 200 | 13.0 | 15.0 | 0.00 | 1.11 | 1.11 | 93 | 1013.7 |
| 20260831033023 | 71 | 204 | 10.0 | 14.0 | 0.00 | 1.11 | 1.11 | 93 | 1013.7 |
| 20260831032532 | 71 | 191 | 11.0 | 14.0 | 0.00 | 1.11 | 1.11 | 93 | 1013.7 |
| 20260831032041 | 71 | 175 | 9.0 | 13.0 | 0.00 | 1.11 | 1.11 | 94 | 1013.5 |
| 20260831031528 | 71 | 167 | 10.0 | 13.0 | 0.00 | 1.11 | 1.11 | 94 | 1013.6 |
| 20260831031041 | 71 | 168 | 8.0 | 10.0 | 0.00 | 1.11 | 1.11 | 94 | 1013.6 |
| 20260831030055 | 71 | 165 | 8.0 | 11.0 | 0.00 | 1.11 | 1.11 | 93 | 1013.6 |
| 20260831025522 | 71 | 160 | 9.0 | 11.0 | 0.00 | 1.11 | 1.11 | 93 | 1013.7 |
| 20260831025027 | 71 | 158 | 9.0 | 11.0 | 0.00 | 1.11 | 1.11 | 93 | 1013.7 |
| 20260831024535 | 71 | 163 | 9.0 | 11.0 | 0.00 | 1.11 | 1.11 | 93 | 1013.7 |
| 20260831024027 | 71 | 151 | 9.0 | 12.0 | 0.00 | 1.11 | 1.11 | 93 | 1013.7 |
| 20260831023537 | 71 | 159 | 9.0 | 12.0 | 0.00 | 1.11 | 1.11 | 93 | 1013.6 |
| 20260831023059 | 71 | 150 | 10.0 | 12.0 | 0.00 | 1.11 | 1.11 | 93 | 1013.5 |
| 20260831022528 | 71 | 161 | 9.0 | 13.0 | 0.00 | 1.11 | 1.11 | 93 | 1013.5 |
| 20260831022038 | 71 | 164 | 11.0 | 13.0 | 0.00 | 1.11 | 1.11 | 93 | 1013.5 |
| 20260831021529 | 71 | 157 | 10.0 | 13.0 | 0.00 | 1.11 | 1.11 | 93 | 1013.4 |
| 20260831021038 | 71 | 154 | 10.0 | 15.0 | 0.00 | 1.11 | 1.11 | 93 | 1013.4 |
| 20260831020525 | 71 | 156 | 11.0 | 15.0 | 0.00 | 1.11 | 1.11 | 93 | 1013.3 |
| 20260831020038 | 71 | 146 | 12.0 | 15.0 | 0.00 | 1.11 | 1.11 | 93 | 1013.3 |
| 20260831015544 | 71 | 150 | 13.0 | 15.0 | 0.00 | 1.11 | 1.11 | 93 | 1013.3 |
| 20260831015034 | 71 | 148 | 11.0 | 15.0 | 0.00 | 1.11 | 1.11 | 93 | 1013.4 |
| 20260831014521 | 71 | 165 | 12.0 | 16.0 | 0.00 | 1.11 | 1.11 | 93 | 1013.3 |
| 20260831014038 | 71 | 158 | 11.0 | 16.0 | 0.00 | 1.11 | 1.11 | 93 | 1013.3 |
| 20260831013545 | 71 | 159 | 11.0 | 17.0 | 0.00 | 1.11 | 1.11 | 93 | 1013.2 |
| 20260831013036 | 71 | 154 | 12.0 | 17.0 | 0.00 | 1.11 | 1.11 | 93 | 1013.3 |
| 20260831012521 | 71 | 149 | 13.0 | 16.0 | 0.00 | 1.11 | 1.11 | 93 | 1013.3 |
| 20260831012045 | 71 | 154 | 12.0 | 15.0 | 0.00 | 1.11 | 1.11 | 93 | 1013.3 |
| 20260831011533 | 71 | 145 | 12.0 | 15.0 | 0.00 | 1.11 | 1.11 | 93 | 1013.3 |
| 20260831011025 | 71 | 160 | 12.0 | 15.0 | 0.00 | 1.11 | 1.11 | 93 | 1013.2 |
| 20260831010528 | 71 | 141 | 11.0 | 14.0 | 0.00 | 1.11 | 1.11 | 93 | 1013.2 |
| 20260831010038 | 71 | 151 | 10.0 | 15.0 | 0.00 | 1.11 | 1.11 | 93 | 1013.2 |
| 20260831005525 | 71 | 157 | 11.0 | 15.0 | 0.00 | 1.11 | 1.11 | 93 | 1013.3 |
| 20260831005034 | 71 | 152 | 11.0 | 13.0 | 0.00 | 1.11 | 1.11 | 93 | 1013.2 |
| 20260831004522 | 71 | 153 | 10.0 | 13.0 | 0.00 | 1.11 | 1.11 | 93 | 1013.3 |
| 20260831004058 | 71 | 148 | 10.0 | 13.0 | 0.00 | 1.11 | 1.11 | 93 | 1013.3 |
| 20260831003527 | 71 | 156 | 11.0 | 13.0 | 0.00 | 1.11 | 1.11 | 93 | 1013.3 |
| 20260831003052 | 71 | 152 | 10.0 | 15.0 | 0.00 | 1.11 | 1.11 | 93 | 1013.3 |
| 20260831002538 | 71 | 154 | 11.0 | 15.0 | 0.00 | 1.11 | 1.11 | 93 | 1013.3 |
| 20260831002031 | 71 | 144 | 11.0 | 15.0 | 0.00 | 1.11 | 1.11 | 93 | 1013.4 |
| 20260831001536 | 71 | 155 | 12.0 | 15.0 | 0.00 | 1.11 | 1.11 | 93 | 1013.4 |
| 20260831001052 | 71 | 157 | 11.0 | 13.0 | 0.00 | 1.11 | 1.11 | 93 | 1013.4 |
| 20260831000540 | 71 | 152 | 11.0 | 15.0 | 0.00 | 1.11 | 1.11 | 93 | 1013.4 |
| 20260831000030 | 71 | 152 | 12.0 | 15.0 | 0.00 | 1.11 | 1.11 | 93 | 1013.4 |
| 20260830235537 | 71 | 142 | 11.0 | 14.0 | 0.00 | 1.11 | 1.11 | 93 | 1013.4 |
| 20260830235101 | 71 | 144 | 11.0 | 12.0 | 0.00 | 1.11 | 1.11 | 93 | 1013.4 |
| 20260830234528 | 71 | 155 | 9.0 | 13.0 | 0.00 | 1.11 | 1.11 | 94 | 1013.7 |
| 20260830234026 | 71 | 151 | 11.0 | 13.0 | 0.00 | 1.11 | 1.11 | 94 | 1013.7 |
| 20260830233600 | 71 | 138 | 8.0 | 11.0 | 0.00 | 1.11 | 1.11 | 94 | 1013.8 |
| 20260830233025 | 71 | 149 | 9.0 | 11.0 | 0.00 | 1.11 | 1.11 | 94 | 1013.8 |
| 20260830232558 | 71 | 145 | 9.0 | 11.0 | 0.00 | 1.11 | 1.11 | 94 | 1013.8 |
| 20260830232030 | 71 | 138 | 8.0 | 11.0 | 0.00 | 1.11 | 1.11 | 94 | 1013.8 |
| 20260830231539 | 70 | 140 | 9.0 | 12.0 | 0.00 | 1.11 | 1.11 | 94 | 1013.8 |
| 20260830231052 | 70 | 132 | 10.0 | 12.0 | 0.00 | 1.11 | 1.11 | 94 | 1013.8 |
| 20260830230538 | 70 | 136 | 10.0 | 12.0 | 0.00 | 1.11 | 1.11 | 94 | 1013.8 |
| 20260830230030 | 70 | 136 | 10.0 | 12.0 | 0.00 | 1.11 | 1.11 | 94 | 1013.9 |
| 20260830225535 | 70 | 142 | 10.0 | 12.0 | 0.00 | 1.11 | 1.11 | 93 | 1013.9 |
| 20260830225028 | 70 | 124 | 10.0 | 13.0 | 0.00 | 1.11 | 1.11 | 93 | 1013.9 |
| 20260830224539 | 70 | 132 | 11.0 | 13.0 | 0.00 | 1.11 | 1.11 | 93 | 1014.0 |
| 20260830224028 | 70 | 124 | 11.0 | 13.0 | 0.00 | 1.11 | 1.11 | 93 | 1014.1 |
| 20260830223557 | 70 | 130 | 10.0 | 14.0 | 0.00 | 1.11 | 1.11 | 93 | 1014.0 |
| 20260830223030 | 70 | 134 | 11.0 | 14.0 | 0.00 | 1.11 | 1.11 | 93 | 1014.0 |
| 20260830222522 | 70 | 127 | 10.0 | 14.0 | 0.00 | 1.11 | 1.11 | 93 | 1014.1 |
| 20260830222023 | 70 | 122 | 11.0 | 14.0 | 0.00 | 1.11 | 1.11 | 93 | 1014.1 |
| 20260830221521 | 70 | 117 | 12.0 | 14.0 | 0.00 | 1.11 | 1.11 | 93 | 1014.2 |
| 20260830221032 | 70 | 129 | 11.0 | 14.0 | 0.00 | 1.11 | 1.11 | 93 | 1014.3 |
| 20260830220539 | 70 | 129 | 11.0 | 14.0 | 0.00 | 1.11 | 1.11 | 93 | 1014.3 |
| 20260830215532 | 70 | 145 | 11.0 | 14.0 | 0.00 | 1.11 | 1.11 | 93 | 1014.4 |
| 20260830215039 | 70 | 150 | 11.0 | 14.0 | 0.00 | 1.11 | 1.11 | 93 | 1014.2 |
| 20260830214528 | 70 | 152 | 11.0 | 14.0 | 0.00 | 1.11 | 1.11 | 93 | 1014.4 |
| 20260830214037 | 70 | 158 | 10.0 | 12.0 | 0.00 | 1.11 | 1.11 | 93 | 1014.3 |
| 20260830213525 | 70 | 146 | 9.0 | 11.0 | 0.00 | 1.11 | 1.11 | 93 | 1014.4 |
| 20260830213034 | 70 | 168 | 9.0 | 11.0 | 0.00 | 1.11 | 1.11 | 93 | 1014.5 |
| 20260830212531 | 70 | 154 | 9.0 | 11.0 | 0.00 | 1.11 | 1.11 | 93 | 1014.5 |
| 20260830212042 | 70 | 159 | 9.0 | 11.0 | 0.00 | 1.11 | 1.11 | 93 | 1014.4 |
| 20260830211525 | 70 | 169 | 8.0 | 10.0 | 0.00 | 1.11 | 1.11 | 93 | 1014.4 |
| 20260830211102 | 70 | 168 | 8.0 | 11.0 | 0.01 | 1.11 | 1.11 | 93 | 1014.5 |
| 20260830210536 | 70 | 153 | 8.0 | 11.0 | 0.01 | 1.11 | 1.11 | 93 | 1014.3 |
| 20260830210043 | 70 | 156 | 9.0 | 12.0 | 0.01 | 1.11 | 1.11 | 93 | 1014.2 |
| 20260830205531 | 70 | 148 | 9.0 | 12.0 | 0.01 | 1.11 | 1.11 | 93 | 1014.3 |
| 20260830205046 | 70 | 151 | 9.0 | 12.0 | 0.01 | 1.11 | 1.11 | 93 | 1014.1 |
| 20260830204527 | 70 | 155 | 9.0 | 12.0 | 0.01 | 1.11 | 1.11 | 92 | 1014.2 |
| 20260830204040 | 70 | 154 | 8.0 | 10.0 | 0.01 | 1.11 | 1.11 | 93 | 1014.2 |
| 20260830203539 | 70 | 151 | 8.0 | 10.0 | 0.01 | 1.11 | 1.11 | 92 | 1014.1 |
| 20260830203031 | 70 | 188 | 8.0 | 11.0 | 0.01 | 1.11 | 1.11 | 92 | 1014.1 |
| 20260830202539 | 70 | 157 | 8.0 | 11.0 | 0.01 | 1.11 | 1.11 | 92 | 1014.1 |
| 20260830202032 | 70 | 178 | 9.0 | 11.0 | 0.01 | 1.11 | 1.11 | 92 | 1014.2 |
| 20260830201537 | 70 | 164 | 9.0 | 14.0 | 0.00 | 1.10 | 1.10 | 92 | 1014.1 |
| 20260830201030 | 70 | 165 | 9.0 | 14.0 | 0.00 | 1.10 | 1.10 | 92 | 1014.1 |
| 20260830200540 | 70 | 167 | 10.0 | 13.0 | 0.00 | 1.10 | 1.10 | 92 | 1014.1 |
| 20260830200057 | 70 | 190 | 9.0 | 14.0 | 0.00 | 1.10 | 1.10 | 92 | 1014.2 |
| 20260830195540 | 70 | 187 | 11.0 | 15.0 | 0.00 | 1.10 | 1.10 | 92 | 1014.2 |
| 20260830195035 | 70 | 190 | 10.0 | 15.0 | 0.00 | 1.10 | 1.10 | 92 | 1014.4 |
| 20260830194604 | 70 | 188 | 10.0 | 15.0 | 0.00 | 1.10 | 1.10 | 92 | 1014.4 |
| 20260830194040 | 70 | 181 | 12.0 | 14.0 | 0.00 | 1.10 | 1.10 | 92 | 1014.5 |
| 20260830193555 | 70 | 175 | 11.0 | 14.0 | 0.00 | 1.10 | 1.10 | 93 | 1014.5 |
| 20260830193027 | 70 | 187 | 12.0 | 14.0 | 0.00 | 1.10 | 1.10 | 93 | 1014.5 |
| 20260830192532 | 70 | 190 | 9.0 | 13.0 | 0.00 | 1.10 | 1.10 | 93 | 1014.5 |
| 20260830192041 | 70 | 189 | 11.0 | 13.0 | 0.00 | 1.10 | 1.10 | 93 | 1014.5 |
| 20260830191530 | 70 | 175 | 9.0 | 13.0 | 0.00 | 1.10 | 1.10 | 93 | 1014.5 |
| 20260830191109 | 69 | 173 | 10.0 | 13.0 | 0.00 | 1.10 | 1.10 | 93 | 1014.6 |
| 20260830190538 | 69 | 169 | 10.0 | 13.0 | 0.00 | 1.10 | 1.10 | 93 | 1014.7 |
| 20260830190032 | 69 | 170 | 10.0 | 13.0 | 0.00 | 1.10 | 1.10 | 93 | 1014.6 |
| 20260830185539 | 69 | 179 | 10.0 | 13.0 | 0.00 | 1.10 | 1.10 | 93 | 1014.6 |
| 20260830185027 | 69 | 189 | 10.0 | 13.0 | 0.01 | 1.10 | 1.10 | 93 | 1014.7 |
| 20260830184538 | 69 | 204 | 9.0 | 13.0 | 0.03 | 1.10 | 1.10 | 94 | 1014.7 |
| 20260830184029 | 69 | 197 | 12.0 | 16.0 | 0.09 | 1.10 | 1.10 | 94 | 1014.7 |
| 20260830183522 | 69 | 197 | 13.0 | 18.0 | 0.40 | 1.10 | 1.10 | 94 | 1014.5 |
| 20260830183036 | 69 | 194 | 15.0 | 18.0 | 0.56 | 1.10 | 1.10 | 94 | 1014.6 |
| 20260830182523 | 69 | 196 | 15.0 | 19.0 | 0.77 | 1.10 | 1.10 | 95 | 1014.6 |
| 20260830182029 | 68 | 206 | 15.0 | 19.0 | 0.84 | 1.10 | 1.10 | 95 | 1014.5 |
| 20260830181539 | 68 | 202 | 16.0 | 19.0 | 0.86 | 1.10 | 1.10 | 95 | 1014.5 |
| 20260830181031 | 68 | 205 | 15.0 | 20.0 | 0.87 | 1.10 | 1.10 | 95 | 1014.6 |
| 20260830180540 | 68 | 220 | 15.0 | 20.0 | 0.88 | 1.10 | 1.10 | 96 | 1014.6 |
| 20260830180027 | 68 | 187 | 16.0 | 19.0 | 0.92 | 1.10 | 1.10 | 96 | 1014.6 |
| 20260830175534 | 68 | 183 | 16.0 | 19.0 | 0.98 | 1.10 | 1.10 | 96 | 1014.4 |
| 20260830175025 | 68 | 176 | 14.0 | 16.0 | 0.97 | 1.08 | 1.08 | 96 | 1014.7 |
| 20260830174534 | 68 | 174 | 10.0 | 13.0 | 0.96 | 1.06 | 1.06 | 95 | 1014.8 |
| 20260830174042 | 68 | 176 | 11.0 | 16.0 | 0.87 | 0.97 | 0.97 | 95 | 1015.0 |
| 20260830173530 | 68 | 190 | 12.0 | 17.0 | 0.61 | 0.71 | 0.71 | 95 | 1015.1 |
| 20260830173041 | 68 | 180 | 12.0 | 17.0 | 0.42 | 0.52 | 0.52 | 95 | 1015.2 |
| 20260830172524 | 68 | 217 | 9.0 | 18.0 | 0.23 | 0.33 | 0.33 | 95 | 1015.4 |
| 20260830172035 | 68 | 192 | 15.0 | 19.0 | 0.15 | 0.25 | 0.25 | 95 | 1014.9 |
| 20260830171522 | 68 | 189 | 15.0 | 19.0 | 0.14 | 0.24 | 0.24 | 95 | 1014.9 |
| 20260830171043 | 68 | 169 | 14.0 | 18.0 | 0.13 | 0.23 | 0.23 | 94 | 1014.9 |
| 20260830170529 | 68 | 201 | 14.0 | 18.0 | 0.12 | 0.22 | 0.22 | 94 | 1015.0 |
| 20260830170040 | 68 | 199 | 14.0 | 17.0 | 0.07 | 0.17 | 0.17 | 94 | 1015.2 |
| 20260830165612 | 68 | 207 | 13.0 | 15.0 | 0.02 | 0.12 | 0.12 | 94 | 1015.2 |
| 20260830165026 | 68 | 201 | 12.0 | 15.0 | 0.00 | 0.10 | 0.10 | 94 | 1015.2 |
| 20260830164536 | 68 | 189 | 11.0 | 14.0 | 0.00 | 0.10 | 0.10 | 94 | 1015.2 |
| 20260830164053 | 68 | 191 | 10.0 | 15.0 | 0.00 | 0.10 | 0.10 | 93 | 1015.4 |
| 20260830163536 | 68 | 206 | 12.0 | 15.0 | 0.00 | 0.10 | 0.10 | 93 | 1015.4 |
| 20260830163027 | 68 | 216 | 10.0 | 15.0 | 0.00 | 0.10 | 0.10 | 94 | 1015.5 |
| 20260830162536 | 68 | 210 | 11.0 | 18.0 | 0.00 | 0.10 | 0.10 | 94 | 1015.6 |
| 20260830162029 | 68 | 206 | 14.0 | 18.0 | 0.00 | 0.10 | 0.10 | 93 | 1015.7 |
| 20260830161530 | 68 | 195 | 12.0 | 15.0 | 0.00 | 0.10 | 0.10 | 94 | 1015.6 |
| 20260830161039 | 68 | 196 | 12.0 | 14.0 | 0.00 | 0.10 | 0.10 | 94 | 1015.6 |
| 20260830160528 | 68 | 182 | 11.0 | 19.0 | 0.00 | 0.10 | 0.10 | 94 | 1015.5 |
| 20260830160039 | 68 | 175 | 12.0 | 19.0 | 0.00 | 0.10 | 0.10 | 94 | 1015.5 |
| 20260830155524 | 68 | 178 | 12.0 | 16.0 | 0.00 | 0.10 | 0.10 | 94 | 1015.5 |
| 20260830155100 | 68 | 182 | 11.0 | 15.0 | 0.00 | 0.10 | 0.10 | 94 | 1015.6 |
| 20260830154531 | 68 | 187 | 11.0 | 15.0 | 0.00 | 0.10 | 0.10 | 94 | 1015.5 |
| 20260830154047 | 68 | 171 | 11.0 | 17.0 | 0.00 | 0.10 | 0.10 | 94 | 1015.4 |
| 20260830153536 | 68 | 185 | 13.0 | 17.0 | 0.00 | 0.10 | 0.10 | 94 | 1015.5 |
| 20260830153030 | 68 | 184 | 12.0 | 15.0 | 0.00 | 0.10 | 0.10 | 94 | 1015.6 |
| 20260830152537 | 68 | 189 | 12.0 | 15.0 | 0.00 | 0.10 | 0.10 | 94 | 1015.6 |
| 20260830152042 | 68 | 199 | 11.0 | 16.0 | 0.00 | 0.10 | 0.10 | 94 | 1015.7 |
| 20260830151530 | 68 | 204 | 12.0 | 16.0 | 0.00 | 0.10 | 0.10 | 94 | 1015.8 |
| 20260830151024 | 68 | 194 | 12.0 | 15.0 | 0.00 | 0.10 | 0.10 | 94 | 1015.9 |
| 20260830150535 | 68 | 203 | 12.0 | 17.0 | 0.00 | 0.10 | 0.10 | 94 | 1015.9 |
| 20260830150028 | 68 | 194 | 12.0 | 17.0 | 0.01 | 0.10 | 0.10 | 94 | 1015.9 |
| 20260830145538 | 68 | 180 | 13.0 | 15.0 | 0.01 | 0.10 | 0.10 | 94 | 1015.9 |
| 20260830145026 | 68 | 178 | 13.0 | 18.0 | 0.01 | 0.10 | 0.10 | 94 | 1016.0 |
| 20260830144549 | 68 | 183 | 13.0 | 18.0 | 0.01 | 0.10 | 0.10 | 94 | 1016.0 |
| 20260830144041 | 68 | 191 | 14.0 | 18.0 | 0.01 | 0.10 | 0.10 | 94 | 1016.0 |
| 20260830143528 | 68 | 198 | 15.0 | 18.0 | 0.01 | 0.10 | 0.10 | 94 | 1016.2 |
| 20260830143036 | 68 | 184 | 13.0 | 16.0 | 0.01 | 0.10 | 0.10 | 94 | 1016.1 |
| 20260830142525 | 68 | 181 | 12.0 | 16.0 | 0.01 | 0.10 | 0.10 | 94 | 1016.0 |
| 20260830142025 | 67 | 189 | 12.0 | 16.0 | 0.01 | 0.10 | 0.10 | 93 | 1016.1 |
| 20260830141531 | 67 | 195 | 13.0 | 18.0 | 0.01 | 0.10 | 0.10 | 93 | 1016.1 |
| 20260830141057 | 67 | 181 | 13.0 | 18.0 | 0.01 | 0.10 | 0.10 | 93 | 1016.0 |
| 20260830140545 | 68 | 188 | 13.0 | 16.0 | 0.01 | 0.10 | 0.10 | 93 | 1016.1 |
| 20260830140025 | 68 | 170 | 12.0 | 18.0 | 0.00 | 0.09 | 0.09 | 92 | 1016.1 |
| 20260830135532 | 68 | 169 | 14.0 | 18.0 | 0.00 | 0.09 | 0.09 | 92 | 1016.0 |
| 20260830135024 | 68 | 159 | 13.0 | 17.0 | 0.00 | 0.09 | 0.09 | 92 | 1015.9 |
| 20260830134527 | 68 | 178 | 13.0 | 17.0 | 0.00 | 0.09 | 0.09 | 92 | 1015.9 |
| 20260830134038 | 68 | 171 | 12.0 | 17.0 | 0.00 | 0.09 | 0.09 | 91 | 1015.9 |
| 20260830133546 | 68 | 160 | 12.0 | 16.0 | 0.00 | 0.09 | 0.09 | 91 | 1015.9 |
| 20260830133035 | 68 | 156 | 13.0 | 16.0 | 0.00 | 0.09 | 0.09 | 91 | 1016.1 |
| 20260830132544 | 67 | 167 | 13.0 | 16.0 | 0.00 | 0.09 | 0.09 | 91 | 1016.1 |
| 20260830132026 | 67 | 149 | 12.0 | 16.0 | 0.00 | 0.09 | 0.09 | 91 | 1016.1 |
| 20260830131535 | 67 | 163 | 12.0 | 15.0 | 0.00 | 0.09 | 0.09 | 91 | 1016.3 |
| 20260830131042 | 67 | 165 | 12.0 | 16.0 | 0.00 | 0.09 | 0.09 | 91 | 1016.3 |
| 20260830130532 | 68 | 159 | 13.0 | 16.0 | 0.00 | 0.09 | 0.09 | 90 | 1016.4 |
| 20260830130042 | 68 | 160 | 11.0 | 14.0 | 0.00 | 0.09 | 0.09 | 90 | 1016.4 |
| 20260830125048 | 68 | 170 | 12.0 | 14.0 | 0.00 | 0.09 | 0.09 | 90 | 1016.4 |
| 20260830124539 | 68 | 171 | 11.0 | 14.0 | 0.00 | 0.09 | 0.09 | 90 | 1016.1 |
| 20260830124027 | 68 | 153 | 10.0 | 12.0 | 0.00 | 0.09 | 0.09 | 90 | 1016.1 |
| 20260830123535 | 68 | 145 | 9.0 | 12.0 | 0.00 | 0.09 | 0.09 | 90 | 1016.1 |
| 20260830123028 | 67 | 141 | 9.0 | 14.0 | 0.00 | 0.09 | 0.09 | 90 | 1016.1 |
| 20260830122530 | 67 | 149 | 11.0 | 14.0 | 0.00 | 0.09 | 0.09 | 90 | 1016.0 |
| 20260830122026 | 67 | 146 | 11.0 | 13.0 | 0.00 | 0.09 | 0.09 | 90 | 1016.0 |
| 20260830121601 | 67 | 159 | 10.0 | 14.0 | 0.00 | 0.09 | 0.09 | 91 | 1016.1 |
| 20260830121033 | 67 | 149 | 11.0 | 14.0 | 0.00 | 0.09 | 0.09 | 91 | 1016.0 |
| 20260830120059 | 68 | 167 | 11.0 | 16.0 | 0.00 | 0.09 | 0.09 | 91 | 1016.0 |
| 20260830115527 | 68 | 166 | 12.0 | 16.0 | 0.00 | 0.09 | 0.09 | 91 | 1016.0 |
| 20260830115059 | 68 | 159 | 12.0 | 16.0 | 0.00 | 0.09 | 0.09 | 91 | 1016.0 |
| 20260830114525 | 68 | 162 | 11.0 | 14.0 | 0.00 | 0.09 | 0.09 | 91 | 1015.9 |
| 20260830114037 | 68 | 171 | 12.0 | 14.0 | 0.00 | 0.09 | 0.09 | 91 | 1016.0 |
| 20260830113540 | 68 | 166 | 11.0 | 14.0 | 0.00 | 0.09 | 0.09 | 91 | 1015.8 |
| 20260830112535 | 67 | 159 | 11.0 | 14.0 | 0.00 | 0.09 | 0.09 | 92 | 1015.5 |
| 20260830112025 | 67 | 158 | 11.0 | 14.0 | 0.00 | 0.09 | 0.09 | 93 | 1015.4 |
| 20260830111532 | 67 | 150 | 10.0 | 14.0 | 0.00 | 0.09 | 0.09 | 93 | 1015.5 |
| 20260830111025 | 67 | 148 | 13.0 | 16.0 | 0.00 | 0.09 | 0.09 | 93 | 1015.5 |
| 20260830110532 | 67 | 143 | 11.0 | 16.0 | 0.00 | 0.09 | 0.09 | 94 | 1015.6 |
| 20260830110104 | 67 | 135 | 13.0 | 16.0 | 0.00 | 0.09 | 0.09 | 94 | 1015.3 |
| 20260830105546 | 67 | 143 | 13.0 | 15.0 | 0.00 | 0.09 | 0.09 | 94 | 1015.4 |
| 20260830105034 | 67 | 134 | 12.0 | 16.0 | 0.00 | 0.09 | 0.09 | 94 | 1015.4 |
| 20260830104540 | 67 | 127 | 13.0 | 17.0 | 0.00 | 0.09 | 0.09 | 94 | 1015.6 |
| 20260830104138 | 67 | 124 | 15.0 | 17.0 | 0.00 | 0.09 | 0.09 | 94 | 1015.6 |
| 20260830103528 | 67 | 127 | 12.0 | 15.0 | 0.00 | 0.09 | 0.09 | 94 | 1015.8 |
| 20260830103039 | 67 | 117 | 13.0 | 16.0 | 0.00 | 0.09 | 0.09 | 94 | 1015.9 |
| 20260830102529 | 67 | 112 | 13.0 | 16.0 | 0.00 | 0.09 | 0.09 | 94 | 1015.9 |
| 20260830102043 | 67 | 124 | 13.0 | 14.0 | 0.00 | 0.09 | 0.09 | 94 | 1015.8 |
| 20260830101531 | 67 | 122 | 12.0 | 14.0 | 0.00 | 0.09 | 0.09 | 94 | 1016.0 |
| 20260830101039 | 67 | 120 | 11.0 | 14.0 | 0.00 | 0.09 | 0.09 | 94 | 1016.2 |
| 20260830100528 | 67 | 102 | 10.0 | 13.0 | 0.00 | 0.09 | 0.09 | 93 | 1016.3 |
| 20260830100041 | 67 | 112 | 7.0 | 13.0 | 0.00 | 0.09 | 0.09 | 93 | 1016.4 |
| 20260830095526 | 67 | 115 | 9.0 | 12.0 | 0.00 | 0.09 | 0.09 | 94 | 1016.4 |
| 20260830095102 | 67 | 124 | 10.0 | 13.0 | 0.00 | 0.09 | 0.09 | 93 | 1016.4 |
| 20260830094538 | 67 | 120 | 10.0 | 14.0 | 0.00 | 0.09 | 0.09 | 93 | 1016.4 |
| 20260830094024 | 67 | 129 | 12.0 | 14.0 | 0.00 | 0.09 | 0.09 | 93 | 1016.4 |
| 20260830093534 | 67 | 129 | 12.0 | 14.0 | 0.00 | 0.09 | 0.09 | 93 | 1016.2 |
| 20260830093027 | 67 | 136 | 9.0 | 14.0 | 0.00 | 0.09 | 0.09 | 93 | 1016.2 |
| 20260830092535 | 67 | 122 | 12.0 | 13.0 | 0.00 | 0.09 | 0.09 | 93 | 1016.1 |
| 20260830092025 | 67 | 124 | 11.0 | 13.0 | 0.00 | 0.09 | 0.09 | 93 | 1016.2 |
| 20260830091533 | 67 | 124 | 10.0 | 12.0 | 0.00 | 0.09 | 0.09 | 93 | 1016.3 |
| 20260830091025 | 67 | 122 | 9.0 | 11.0 | 0.01 | 0.09 | 0.09 | 93 | 1016.5 |
| 20260830090531 | 67 | 113 | 9.0 | 12.0 | 0.01 | 0.09 | 0.09 | 93 | 1016.6 |
| 20260830090042 | 67 | 110 | 10.0 | 12.0 | 0.01 | 0.09 | 0.09 | 93 | 1016.5 |
| 20260830085530 | 66 | 115 | 6.0 | 11.0 | 0.01 | 0.09 | 0.09 | 92 | 1016.6 |
| 20260830085043 | 66 | 122 | 5.0 | 9.0 | 0.01 | 0.09 | 0.09 | 92 | 1016.6 |
| 20260830084528 | 66 | 98 | 2.0 | 7.0 | 0.01 | 0.09 | 0.09 | 91 | 1016.7 |
| 20260830084041 | 66 | 95 | 2.0 | 8.0 | 0.01 | 0.09 | 0.09 | 91 | 1016.8 |
| 20260830083528 | 66 | 96 | 5.0 | 8.0 | 0.01 | 0.09 | 0.09 | 91 | 1016.7 |
| 20260830083035 | 66 | 124 | 3.0 | 6.0 | 0.01 | 0.09 | 0.09 | 91 | 1016.7 |
| 20260830082523 | 66 | 98 | 2.0 | 4.0 | 0.01 | 0.09 | 0.09 | 91 | 1016.7 |
| 20260830082100 | 66 | 56 | 1.0 | 3.0 | 0.01 | 0.09 | 0.09 | 91 | 1016.8 |
| 20260830081526 | 66 | 331 | 0.0 | 2.0 | 0.00 | 0.08 | 0.08 | 91 | 1016.9 |
| 20260830081036 | 66 | 15 | 0.0 | 4.0 | 0.00 | 0.08 | 0.08 | 91 | 1016.9 |
| 20260830080524 | 67 | 1 | 1.0 | 4.0 | 0.00 | 0.08 | 0.08 | 91 | 1016.8 |
| 20260830080034 | 67 | 81 | 1.0 | 5.0 | 0.00 | 0.08 | 0.08 | 91 | 1016.8 |
| 20260830075522 | 67 | 46 | 1.0 | 5.0 | 0.00 | 0.08 | 0.08 | 91 | 1016.8 |
| 20260830075029 | 67 | 81 | 2.0 | 6.0 | 0.00 | 0.08 | 0.08 | 91 | 1016.9 |
| 20260830074535 | 67 | 40 | 3.0 | 7.0 | 0.01 | 0.08 | 0.08 | 91 | 1016.9 |
| 20260830074029 | 67 | 103 | 3.0 | 7.0 | 0.01 | 0.08 | 0.08 | 91 | 1016.9 |
| 20260830073535 | 67 | 105 | 3.0 | 6.0 | 0.01 | 0.08 | 0.08 | 91 | 1016.9 |
| 20260830073028 | 67 | 77 | 3.0 | 5.0 | 0.01 | 0.08 | 0.08 | 91 | 1017.0 |
| 20260830072536 | 67 | 76 | 2.0 | 5.0 | 0.02 | 0.08 | 0.08 | 90 | 1016.9 |
| 20260830072027 | 67 | 100 | 2.0 | 3.0 | 0.02 | 0.08 | 0.08 | 90 | 1016.9 |
| 20260830071533 | 68 | 89 | 0.0 | 4.0 | 0.02 | 0.08 | 0.08 | 90 | 1017.0 |
| 20260830071028 | 68 | 105 | 1.0 | 5.0 | 0.02 | 0.08 | 0.08 | 90 | 1017.0 |
| 20260830070541 | 68 | 83 | 2.0 | 5.0 | 0.02 | 0.08 | 0.08 | 90 | 1016.9 |
| 20260830070027 | 68 | 82 | 2.0 | 6.0 | 0.02 | 0.08 | 0.08 | 90 | 1017.0 |
| 20260830065532 | 68 | 82 | 3.0 | 6.0 | 0.02 | 0.08 | 0.08 | 90 | 1017.1 |
| 20260830065043 | 68 | 101 | 4.0 | 6.0 | 0.02 | 0.08 | 0.08 | 90 | 1017.1 |
| 20260830064531 | 68 | 96 | 2.0 | 5.0 | 0.01 | 0.07 | 0.07 | 89 | 1017.2 |
| 20260830064040 | 68 | 76 | 2.0 | 5.0 | 0.01 | 0.07 | 0.07 | 89 | 1017.2 |
| 20260830063527 | 68 | 115 | 2.0 | 3.0 | 0.01 | 0.07 | 0.07 | 89 | 1017.4 |
| 20260830063040 | 68 | 72 | 1.0 | 3.0 | 0.01 | 0.07 | 0.07 | 88 | 1017.4 |
| 20260830062526 | 68 | 117 | 1.0 | 3.0 | 0.01 | 0.06 | 0.06 | 88 | 1017.5 |
| 20260830062036 | 68 | 179 | 0.0 | 1.0 | 0.01 | 0.06 | 0.06 | 88 | 1017.5 |
| 20260830061525 | 68 | 295 | 0.0 | 1.0 | 0.02 | 0.06 | 0.06 | 88 | 1017.6 |
| 20260830061038 | 68 | 46 | 0.0 | 1.0 | 0.03 | 0.06 | 0.06 | 87 | 1017.4 |
| 20260830060548 | 69 | 89 | 0.0 | 1.0 | 0.04 | 0.06 | 0.06 | 87 | 1017.5 |
| 20260830060040 | 69 | 46 | 0.0 | 0.0 | 0.06 | 0.06 | 0.06 | 87 | 1017.6 |
| 20260830055530 | 69 | 89 | 0.0 | 1.0 | 0.06 | 0.06 | 0.06 | 87 | 1017.6 |
| 20260830055038 | 69 | 1 | 0.0 | 1.0 | 0.06 | 0.06 | 0.06 | 87 | 1017.5 |
| 20260830054546 | 69 | 1 | 0.0 | 1.0 | 0.06 | 0.06 | 0.06 | 86 | 1017.6 |
| 20260830054037 | 69 | 46 | 0.0 | 1.0 | 0.06 | 0.06 | 0.06 | 86 | 1017.6 |
| 20260830053528 | 69 | 1 | 0.0 | 2.0 | 0.06 | 0.06 | 0.06 | 86 | 1017.7 |
| 20260830053036 | 70 | 28 | 0.0 | 2.0 | 0.06 | 0.06 | 0.06 | 85 | 1017.7 |
| 20260830052546 | 70 | 46 | 0.0 | 1.0 | 0.05 | 0.05 | 0.05 | 85 | 1017.9 |
| 20260830052036 | 70 | 28 | 0.0 | 2.0 | 0.05 | 0.05 | 0.05 | 85 | 1017.8 |
| 20260830051541 | 70 | 331 | 1.0 | 3.0 | 0.04 | 0.04 | 0.04 | 84 | 1017.9 |
| 20260830051034 | 70 | 331 | 1.0 | 3.0 | 0.03 | 0.03 | 0.03 | 84 | 1017.8 |
| 20260830050523 | 70 | 15 | 1.0 | 4.0 | 0.02 | 0.02 | 0.02 | 83 | 1017.8 |
| 20260830050034 | 70 | 344 | 1.0 | 3.0 | 0.00 | 0.00 | 0.00 | 82 | 1017.7 |
| 20260830045538 | 70 | 46 | 1.0 | 4.0 | 0.00 | 0.00 | 0.00 | 81 | 1017.6 |
| 20260830045029 | 70 | 32 | 1.0 | 4.0 | 0.00 | 0.00 | 0.00 | 81 | 1017.7 |